THORAD AGENA D DEB, 42505

Orbit data source: Space-Track

THORAD AGENA D DEB, 42505 is space debris in SSO originally from a launch on Wed, 08 Apr 1970 UTC launched from the Air Force Western Test Range (AFWTR). Debris objects in space refer to the collection of defunct objects orbiting the Earth. Examples of debris include non-operational satellites, rocket bodies, and fragments generated from explosions, collisions, or faulty payload assembly.

Loading next visibility...
Identifier
42505, 1970-025RK
Orbit
SSO
Country
Flag of USUS
Related business
Manufacturer
Unknown
Mission
Spacecraft
Bus & Motor
Unknown
Mass
Unknown
Launch date (UTC)
1970-04-08 (56 years ago)
Launch vehicle
Unknown
Launch site
Air Force Western Test Range (AFWTR)
Object type
Payload
Rocket body
Debris
Shape & HBR
Unknown shape, 0.1 m
Radar Cross Section
Small (<0.1 m²)

Expand to show TLE details & history
Last TLE update: 3 days ago

TLE from 3 days ago
0 THORAD AGENA D DEB
1 42505U 70025RK  26234.63313735  .00000417  00000-0  62028-3 0  9991
2 42505 100.1777 192.6153 0045124  28.3091 148.0423 13.59862294632302
Epoch: 2026-08-22T15:11Z
TLE epoch observation values (Epoch: 2026-08-22T15:11:43.067Z)
Latitude
3.23052°
Longitude
174.32271°
Altitude
1,067.047 km
Speed
7.305 km/s
True Right ascension
00h 52m 46s
True Declination
3° 12' 43"
Sunlit
Object was in full shadow at epoch
Visualization orbit readout
Latitude
Unknown
Longitude
Unknown
Altitude
Unknown
Speed
Unknown
Apparent Right ascension
Unknown
Apparent Declination
Unknown
Sunlit
N/A
Visualization observer readout
Local Sidereal Time
17:38:24
Azimuth
Unknown
Elevation
Unknown
Doppler factor
Unknown
Orbital elements
Apogee altitude
1,066.95 km
Perigee altitude
1,000.062 km
Semi-major axis
7,411.643 km
Eccentricity
0.00451
Inclination
100.1777°
RAAN
192.6153°
Arg. of periapsis
28.3091°
True anomaly
148.31468°
Mean anomaly
148.0423°
Eccentric anomaly
148.17862°
Mean motion
3.40151 °/min
Orbital period
105.84 mins
BSTAR
0.00062028
Loading maneuver chart data...
Computing Atmospheric mass density...

Documentation

Showing up to 5 results
|